一网星座-0011星 (ONEWEB-0011 )

导读

ONEWEB-0011是英国OneWeb星座首批发射的低轨通信卫星之一,于2019年2月27日成功发射入轨,属于OneWeb一期组网卫星。卫星重约147.5公斤,运行在1200公里高度的近极地轨道,配备Ku/Ka波段通信载荷,单星通信能力约7.5Gbps,为全球提供低延迟宽带互联网接入服务。遵循空间 debris规范,寿命到期后会主动离轨,是OneWeb构建全球卫星互联网的重要组成单元。

Basic Information
目录编号:
44062
目录名称:
ONEWEB-0011
国际标识:
2019-010F
轨道中心:
EARTH
卫星名称:
一网星座-0011星
卫星全名:
一网星座-0011星 (ONEWEB-0011 )
卫星状态:
在轨 (已飞行2663 天)
发射日期:
2019-02-27 UTC
国别 :
英国 (GB)
星等 :
--
Orbit Information
数据来源 国际轨道数据 AOE轨道数据
星历时间 2026-06-12T07:41:41+0800
1天前
查看轨道信息
2026-06-12T04:00:00+0800
1天前
查看轨道信息
半长轴 7579.9km 7579.893km
偏心率 0.0002004 0.0001645
轨道倾角 87.901° 87.901°
近地点辐角 105.745° 110.876°
升交点赤经 260.230° 260.258°
平近点角 254.390° 240.575°
近地点 1200.243km 1200.509km
远地点 1203.283km 1203.003km
周期 109.460分钟 109.460分钟
每日圈数 13.155507 13.155526
Detailed Information
平衡模式:
三轴稳定
覆盖范围:
全球
运营商:
一网卫星公司
运营商所在国:
英国
制造商(研发单位):
空客防务与航天公司
制造商所在国:
法国大都会
使用方式:
暂无
Satellite Introduction
OneWeb卫星网络由648颗重约125公斤的微型卫星组成,运行在1200公里的轨道上。 每颗卫星都能够提供至少每秒8千兆位的吞吐量,以使用其高吞吐量的Ku频段有效载荷为家庭和移动平台提供互联网接入。该卫星仍在工作。
2D Orbit Map
3D Orbit Map
Orbit Altitude Analysis Chart
Orbit Inclination Analysis Chart
Orbit Comprehensive Analysis Chart
View Comprehensive Chart